Vorticity
80 28 33 12 -10 3 -11 21 2 6 2 -18 -14 17 2 31 33 14 19 3 6 13 5 -24 27 -6 -16 25 11 17 24 14 7 12 19 12 5 3 9 12 13 10 4
44 87 23 41 0 -8 0 -4 14 -2 4 21 -17 -26 -16 -30 29 -6 -41 12 -39 54 44 11 17 3 47 24 8 19 23 34 17 25 7 6 26 33 8 5 8 4 5
32 48 75 37 14 11 8 1 12 9 -4 11 16 1 15 -36 6 -2 3 44 38 34 18 -19 23 -15 -5 23 29 20 21 41 5 6 6 14 13 14 19 16 17 7 11
21 33 56 60 33 16 5 3 -8 1 6 3 -4 -18 -43 -15 -5 23 26 7 -5 18 9 -5 -11 8 11 14 -14 16 -18 19 -9 4 6 14 33 1 5 6 9 10 12
19 15 37 73 47 24 2 11 9 13 7 -2 26 19 -14 21 -0 9 32 5 7 5 -1 8 17 15 17 -5 -16 -14 7 6 13 -5 -1 5 -3 3 13 10 5 9 6
10 17 28 48 74 32 19 -11 1 18 2 40 9 30 -68 60 -13 -35 14 5 16 2 10 -4 14 14 -16 -33 -3 6 4 17 6 11 1 7 -2 -2 2 7 9 16 6
7 20 17 25 64 52 33 32 -3 15 -6 14 -13 11 16 -1 -41 22 -13 17 -9 11 6 5 -7 -11 -7 5 14 7 9 6 4 -5 8 9 -2 -7 5 8 15 7 -7
9 16 16 29 39 62 41 43 20 -10 1 -9 19 -4 -14 -8 -36 9 14 22 17 1 0 11 7 4 14 10 8 5 11 10 6 6 8 7 2 0 9 12 6 -3 -13
14 11 9 27 40 42 39 59 34 26 -12 -21 1 30 -1 -2 -5 5 1 -30 -9 21 15 11 22 9 -2 8 2 5 2 2 5 4 3 2 3 4 6 4 3 7 2
21 9 13 20 57 31 23 56 43 29 -0 13 -30 -6 21 11 31 -9 4 -1 -3 -9 9 9 1 12 8 6 7 8 13 17 8 6 8 9 8 7 4 7 4 9 9
27 12 14 16 56 13 8 4 57 43 28 30 -11 -9 -13 15 17 -12 13 7 24 33 8 9 -10 14 13 11 11 9 10 6 8 10 6 1 2 5 7 4 12 12 9
32 15 13 20 43 17 10 8 3 64 49 38 29 -26 1 -18 -18 41 23 37 9 5 15 11 20 15 10 14 11 10 6 9 9 -6 7 2 9 9 6 9 7 10 13
37 14 7 27 44 23 14 15 5 -6 20 67 52 2 0 1 -6 -15 -7 -18 1 8 12 22 13 6 13 9 7 7 13 7 5 8 3 8 9 4 8 4 1 4 5
34 20 12 15 42 11 19 23 14 3 26 10 86 33 13 -10 15 -20 12 12 -10 10 0 10 9 9 12 2 4 4 4 1 5 10 4 4 6 3 6 2 1 5 4
26 28 12 10 25 29 26 9 18 -4 -6 -9 36 84 52 -4 5 -22 -22 7 -15 17 2 18 8 12 16 6 6 5 11 20 6 10 5 6 4 0 3 8 8 7 11
23 32 13 11 19 35 -6 -15 5 28 2 -4 35 24 64 -0 -4 -4 9 8 -4 5 29 18 7 4 3 4 7 2 7 12 11 7 4 6 2 3 6 4 5 13 12
28 29 21 11 21 17 8 9 9 12 20 -13 17 11 71 34 -12 -25 7 38 4 -4 -4 10 10 8 7 12 6 10 10 7 1 7 3 2 8 5 4 8 10 27 11
29 24 28 4 14 21 29 -4 7 -6 6 29 2 22 1 68 51 24 5 41 -18 -8 9 -4 1 18 21 16 15 11 4 14 1 5 4 9 5 -3 7 5 18 13 5
26 22 30 13 11 15 27 34 6 14 0 14 41 -15 11 12 27 28 -12 26 -17 -4 -9 28 30 -5 16 16 11 7 5 6 6 7 8 5 2 4 6 15 16 8 -1
23 22 30 20 8 15 16 13 18 13 2 19 31 -8 -10 23 31 25 23 -20 48 -32 36 3 3 13 13 3 9 8 0 12 10 7 3 5 8 7 14 21 8 8 12
22 23 31 24 10 13 19 12 17 24 6 -10 -2 -11 14 30 12 15 13 14 14 46 -13 18 12 13 -3 0 14 12 11 6 1 6 12 11 11 10 15 8 14 6 15
20 24 30 26 13 12 24 18 14 10 19 -7 25 1 13 22 27 13 12 8 14 1 36 24 5 9 12 18 5 10 4 -0 3 10 9 13 13 14 15 14 7 15 8
20 23 28 27 15 11 20 24 9 15 12 11 21 13 1 17 26 23 3 40 11 -6 -3 12 24 1 10 8 3 8 11 10 10 11 10 8 11 10 19 26 16 8 11
19 22 26 28 14 13 14 23 19 13 2 18 12 41 4 11 33 13 -5 12 21 28 -3 4 21 10 -5 13 1 2 12 8 11 8 8 13 10 -7 17 1 5 9 10
17 21 23 28 16 15 9 17 21 19 13 16 18 26 38 -7 5 33 -10 19 38 14 38 26 44 7 15 2 13 14 9 12 9 9 9 9 9 10 11 13 13 19 16
16 19 23 29 20 12 12 11 16 29 18 18 15 11 19 32 12 10 22 6 -19 -14 -3 -11 19 -3 12 19 25 19 12 11 7 14 7 13 14 9 3 5 15 18 15
Height
5473 5485 5495 5507 5523 5543 5560 5573 5588 5605 5619 5633 5647 5660 5671 5679 5687 5699 5708 5717 5727 5736 5743 5755 5764 5770 5774 5780 5788 5793 5797 5802 5806 5810 5814 5817 5817 5820 5823 5826 5828 5827 5828
5455 5460 5475 5486 5500 5520 5540 5555 5570 5590 5605 5617 5631 5646 5658 5665 5676 5687 5696 5706 5716 5726 5735 5746 5753 5758 5765 5770 5777 5781 5786 5792 5796 5802 5804 5806 5807 5809 5814 5817 5817 5818 5819
5440 5442 5449 5463 5480 5498 5518 5536 5552 5572 5589 5603 5615 5631 5644 5657 5664 5674 5683 5694 5703 5713 5725 5733 5741 5748 5755 5761 5765 5772 5778 5783 5789 5792 5794 5797 5799 5802 5805 5806 5806 5809 5809
5425 5427 5429 5440 5458 5476 5496 5514 5533 5553 5573 5587 5601 5618 5630 5637 5650 5660 5671 5681 5689 5700 5711 5721 5729 5737 5745 5752 5760 5765 5771 5777 5781 5784 5786 5788 5791 5794 5796 5797 5798 5799 5800
5411 5412 5415 5419 5434 5453 5474 5492 5514 5535 5557 5571 5585 5602 5615 5624 5637 5646 5656 5665 5677 5688 5699 5708 5717 5726 5733 5740 5749 5755 5762 5769 5771 5775 5779 5782 5785 5787 5788 5788 5790 5791 5791
5397 5397 5399 5402 5413 5433 5452 5472 5493 5514 5538 5551 5568 5584 5603 5610 5622 5631 5644 5654 5664 5675 5686 5696 5705 5714 5721 5730 5738 5746 5753 5760 5764 5767 5770 5774 5777 5777 5779 5781 5783 5784 5784
5384 5383 5385 5388 5394 5410 5430 5451 5471 5492 5514 5532 5550 5565 5583 5591 5604 5618 5627 5639 5651 5663 5674 5683 5693 5704 5711 5718 5727 5733 5742 5750 5755 5758 5762 5766 5768 5770 5771 5774 5774 5775 5776
5370 5371 5371 5373 5378 5389 5406 5428 5448 5469 5489 5511 5527 5546 5561 5577 5589 5602 5614 5622 5638 5651 5662 5674 5682 5690 5699 5709 5716 5724 5733 5739 5745 5749 5752 5754 5759 5763 5764 5765 5767 5768 5769
5356 5358 5359 5360 5365 5373 5388 5406 5427 5446 5467 5488 5506 5523 5543 5561 5577 5589 5601 5610 5626 5638 5650 5661 5670 5678 5688 5697 5706 5714 5721 5730 5735 5739 5742 5745 5751 5753 5755 5756 5757 5759 5760
5343 5346 5348 5349 5353 5362 5376 5390 5408 5428 5447 5464 5488 5507 5528 5547 5565 5573 5585 5595 5612 5628 5639 5648 5658 5668 5676 5684 5693 5701 5711 5718 5723 5728 5734 5736 5740 5743 5745 5747 5747 5748 5750
5330 5334 5337 5339 5345 5354 5365 5381 5391 5411 5430 5449 5467 5490 5513 5530 5548 5557 5571 5584 5599 5612 5626 5638 5649 5658 5665 5674 5683 5693 5700 5705 5712 5719 5723 5727 5731 5734 5736 5737 5738 5740 5740
5317 5320 5326 5329 5333 5344 5354 5369 5382 5396 5413 5432 5447 5469 5495 5515 5532 5543 5559 5574 5588 5600 5614 5626 5636 5645 5653 5661 5671 5680 5688 5696 5703 5708 5713 5717 5721 5725 5726 5727 5729 5731 5731
5305 5308 5314 5319 5324 5333 5343 5356 5371 5384 5397 5412 5431 5454 5476 5495 5513 5528 5545 5558 5571 5585 5600 5612 5622 5629 5639 5649 5658 5666 5676 5684 5690 5698 5702 5707 5710 5714 5717 5720 5722 5722 5722
5292 5295 5300 5307 5314 5322 5331 5345 5358 5373 5389 5400 5418 5439 5456 5476 5496 5512 5524 5539 5555 5570 5584 5596 5607 5616 5625 5635 5644 5657 5666 5672 5680 5685 5692 5696 5699 5704 5707 5710 5712 5713 5714
5278 5282 5288 5295 5301 5312 5319 5333 5349 5364 5379 5390 5402 5419 5439 5460 5478 5496 5510 5525 5542 5558 5570 5581 5589 5598 5610 5623 5635 5647 5656 5662 5670 5677 5682 5685 5690 5694 5697 5700 5701 5702 5704
5264 5267 5275 5283 5290 5299 5308 5319 5335 5348 5363 5376 5390 5403 5421 5443 5461 5481 5494 5511 5527 5542 5554 5566 5577 5588 5600 5613 5624 5636 5644 5651 5659 5664 5670 5674 5679 5684 5687 5689 5691 5693 5694
5250 5252 5260 5270 5278 5287 5297 5308 5321 5335 5349 5363 5377 5393 5405 5428 5446 5465 5481 5497 5514 5525 5540 5552 5564 5577 5590 5600 5611 5622 5630 5639 5644 5652 5659 5664 5670 5673 5676 5679 5680 5683 5685
5235 5238 5244 5255 5265 5276 5287 5297 5308 5323 5336 5351 5365 5380 5395 5414 5431 5450 5464 5477 5495 5511 5525 5538 5552 5565 5577 5589 5598 5608 5617 5625 5632 5639 5647 5653 5658 5662 5666 5669 5671 5674 5678
5219 5224 5230 5239 5250 5262 5274 5284 5295 5308 5323 5336 5352 5366 5382 5400 5418 5431 5444 5462 5487 5504 5513 5526 5540 5550 5564 5576 5584 5593 5604 5611 5621 5628 5635 5641 5646 5650 5655 5659 5662 5666 5670
5204 5210 5217 5226 5236 5247 5259 5271 5282 5295 5310 5325 5338 5356 5366 5385 5402 5412 5430 5455 5476 5490 5501 5514 5529 5539 5548 5561 5572 5580 5590 5598 5610 5617 5623 5630 5635 5640 5645 5650 5654 5657 5661
5191 5196 5203 5213 5225 5236 5246 5258 5270 5285 5298 5312 5326 5340 5352 5368 5383 5398 5419 5445 5462 5475 5487 5501 5514 5524 5537 5548 5559 5570 5579 5586 5597 5605 5611 5617 5623 5630 5634 5639 5643 5648 5653
5178 5184 5190 5200 5212 5225 5236 5249 5261 5274 5287 5302 5315 5328 5341 5358 5373 5388 5405 5433 5447 5462 5475 5489 5502 5512 5525 5536 5547 5557 5565 5574 5585 5593 5600 5607 5612 5618 5623 5628 5633 5638 5643
5166 5172 5178 5188 5201 5214 5226 5238 5249 5264 5278 5291 5305 5319 5333 5350 5363 5373 5396 5416 5432 5448 5461 5477 5489 5500 5510 5523 5534 5546 5555 5562 5572 5580 5587 5594 5601 5608 5613 5618 5624 5629 5634
5155 5161 5168 5178 5191 5204 5217 5229 5241 5252 5268 5281 5295 5309 5324 5335 5349 5361 5382 5398 5414 5432 5448 5463 5476 5487 5500 5511 5522 5534 5541 5549 5557 5567 5573 5581 5588 5595 5603 5608 5614 5619 5624
5144 5151 5159 5169 5181 5194 5207 5221 5233 5245 5257 5270 5285 5298 5313 5326 5338 5350 5370 5387 5405 5417 5435 5450 5461 5476 5489 5500 5509 5519 5528 5537 5547 5556 5561 5570 5576 5582 5590 5598 5603 5609 5615
5135 5142 5151 5161 5173 5186 5199 5212 5225 5239 5252 5264 5276 5289 5302 5315 5327 5339 5355 5375 5392 5408 5423 5439 5449 5464 5476 5486 5497 5505 5516 5526 5535 5543 5550 5558 5565 5573 5581 5587 5593 5600 5607